JBU805 KPWM-KJFK

Flight info

Callsign JBU805
Flight time 0h 53m
Altitude 26000
Route ENE PARCH4
Aircraft A320/M-SDE3FGHIRWY/LB1

Departure

Time 2026-05-07 20:42
Airport Portland International Jetport (KPWM)

Arrival

Time 2026-05-07 21:36
Airport John F. Kennedy International Airport (KJFK)
Time Latitude Longitude Altitude Speed Heading
2026-05-07 20:21 43.64685 -70.31117 69 ft 0 kts
2026-05-07 20:34 43.64675 -70.31118 59 ft 4 kts
2026-05-07 20:34 43.64648 -70.31122 68 ft 4 kts
2026-05-07 20:35 43.64622 -70.31130 65 ft 4 kts 26°
2026-05-07 20:35 43.64603 -70.31151 62 ft 4 kts 69°
2026-05-07 20:35 43.64600 -70.31166 69 ft 0 kts 95°
2026-05-07 20:38 43.64597 -70.31122 62 ft 9 kts 95°
2026-05-07 20:38 43.64590 -70.31020 67 ft 12 kts 95°
2026-05-07 20:38 43.64581 -70.30885 66 ft 16 kts 95°
2026-05-07 20:39 43.64570 -70.30718 60 ft 19 kts 95°
2026-05-07 20:39 43.64557 -70.30526 59 ft 22 kts 95°
2026-05-07 20:39 43.64573 -70.30348 60 ft 19 kts 71°
2026-05-07 20:39 43.64580 -70.30156 54 ft 21 kts 93°
2026-05-07 20:40 43.64568 -70.29986 52 ft 5 kts 97°
2026-05-07 20:40 43.64562 -70.29954 52 ft 0 kts 109°
2026-05-07 20:40 43.64559 -70.29945 52 ft 2 kts 114°
2026-05-07 20:41 43.64539 -70.29926 52 ft 5 kts 156°
2026-05-07 20:41 43.64491 -70.29914 52 ft 8 kts 172°
2026-05-07 20:41 43.64426 -70.29935 52 ft 11 kts 217°
2026-05-07 20:41 43.64415 -70.30044 53 ft 13 kts 274°
2026-05-07 20:42 43.64441 -70.30415 58 ft 71 kts 273°
2026-05-07 20:42 43.64505 -70.31345 66 ft 120 kts 275°
2026-05-07 20:42 43.64594 -70.32608 403 ft 131 kts 277°
2026-05-07 20:42 43.64680 -70.33852 1009 ft 131 kts 277°
2026-05-07 20:43 43.64768 -70.35141 1392 ft 143 kts 278°
2026-05-07 20:43 43.64879 -70.36610 1648 ft 164 kts 271°
2026-05-07 20:43 43.64443 -70.38182 1919 ft 195 kts 232°
2026-05-07 20:43 43.63292 -70.39423 2245 ft 224 kts 217°
2026-05-07 20:44 43.61889 -70.40611 2737 ft 247 kts 216°
2026-05-07 20:44 43.60404 -70.41844 3546 ft 256 kts 216°
2026-05-07 20:44 43.58868 -70.43107 4512 ft 259 kts 216°
2026-05-07 20:44 43.57311 -70.44382 5447 ft 262 kts 215°
2026-05-07 20:45 43.55736 -70.45681 6374 ft 265 kts 216°
2026-05-07 20:45 43.54149 -70.47007 7249 ft 267 kts 219°
2026-05-07 20:45 43.52736 -70.48641 8141 ft 265 kts 227°
2026-05-07 20:45 43.51367 -70.50350 9076 ft 266 kts 228°
2026-05-07 20:46 43.49985 -70.52078 9967 ft 268 kts 229°
2026-05-07 20:46 43.48585 -70.53837 10423 ft 286 kts 229°
2026-05-07 20:46 43.47058 -70.55769 10654 ft 309 kts 228°
2026-05-07 20:46 43.45439 -70.57809 11207 ft 318 kts 227°
2026-05-07 20:47 43.43781 -70.59854 11962 ft 321 kts 225°
2026-05-07 20:47 43.41895 -70.61569 12783 ft 329 kts 213°
2026-05-07 20:47 43.39766 -70.62741 13632 ft 334 kts 206°
2026-05-07 20:47 43.37576 -70.63807 14405 ft 333 kts 207°
2026-05-07 20:48 43.35393 -70.64877 15144 ft 333 kts 207°
2026-05-07 20:48 43.33211 -70.65952 15867 ft 332 kts 207°
2026-05-07 20:48 43.31036 -70.67027 16577 ft 332 kts 207°
2026-05-07 20:48 43.28856 -70.68105 17301 ft 333 kts 207°
2026-05-07 20:49 43.26672 -70.69181 18036 ft 334 kts 207°
2026-05-07 20:49 43.24507 -70.70246 18669 ft 335 kts 207°
2026-05-07 20:49 43.22311 -70.71325 19327 ft 336 kts 207°
2026-05-07 20:49 43.20106 -70.72410 19979 ft 338 kts 208°
2026-05-07 20:50 43.17884 -70.73500 20604 ft 339 kts 208°
2026-05-07 20:50 43.15650 -70.74593 21197 ft 341 kts 208°
2026-05-07 20:50 43.13404 -70.75688 21759 ft 343 kts 208°
2026-05-07 20:50 43.11146 -70.76787 22306 ft 345 kts 208°
2026-05-07 20:51 43.08881 -70.77893 22855 ft 346 kts 208°
2026-05-07 20:51 43.06606 -70.79004 23382 ft 348 kts 209°
2026-05-07 20:51 43.04314 -70.80122 23813 ft 350 kts 209°
2026-05-07 20:51 43.02040 -70.81230 24219 ft 352 kts 209°
2026-05-07 20:52 42.99728 -70.82358 24618 ft 354 kts 209°
2026-05-07 20:52 42.97394 -70.83495 24973 ft 355 kts 209°
2026-05-07 20:52 42.95053 -70.84635 25406 ft 356 kts 209°
2026-05-07 20:52 42.92717 -70.85770 25694 ft 356 kts 209°
2026-05-07 20:53 42.90373 -70.86910 25767 ft 360 kts 209°
2026-05-07 20:53 42.88036 -70.88046 25829 ft 362 kts 208°
2026-05-07 20:53 42.85650 -70.89199 25802 ft 365 kts 208°
2026-05-07 20:53 42.83242 -70.90360 25800 ft 367 kts 208°
2026-05-07 20:54 42.80830 -70.91523 25801 ft 368 kts 208°
2026-05-07 20:54 42.78411 -70.92691 25789 ft 366 kts 208°
2026-05-07 20:54 42.76009 -70.93849 25801 ft 365 kts 208°
2026-05-07 20:54 42.73639 -70.94986 25803 ft 364 kts 208°
2026-05-07 20:55 42.71244 -70.96136 25803 ft 364 kts 208°
2026-05-07 20:55 42.68851 -70.97288 25787 ft 364 kts 208°
2026-05-07 20:55 42.66459 -70.98440 25786 ft 364 kts 208°
2026-05-07 20:55 42.64074 -70.99591 25785 ft 364 kts 208°
2026-05-07 20:56 42.61686 -71.00743 25745 ft 364 kts 208°
2026-05-07 20:56 42.59298 -71.01890 25763 ft 364 kts 208°
2026-05-07 20:56 42.56940 -71.03017 25777 ft 363 kts 208°
2026-05-07 20:56 42.54547 -71.04160 25784 ft 363 kts 208°
2026-05-07 20:57 42.52164 -71.05299 25790 ft 362 kts 208°
2026-05-07 20:57 42.49781 -71.06443 25794 ft 361 kts 208°
2026-05-07 20:57 42.47442 -71.07567 25792 ft 362 kts 208°
2026-05-07 20:57 42.45031 -71.08721 25794 ft 362 kts 208°
2026-05-07 20:58 42.42693 -71.09836 25763 ft 361 kts 208°
2026-05-07 20:58 42.40318 -71.10965 25778 ft 360 kts 208°
2026-05-07 20:58 42.37954 -71.12089 25792 ft 360 kts 209°
2026-05-07 20:58 42.35590 -71.13213 25794 ft 358 kts 208°
2026-05-07 20:59 42.33239 -71.14331 25792 ft 358 kts 209°
2026-05-07 20:59 42.30889 -71.15446 25807 ft 358 kts 208°
2026-05-07 20:59 42.28539 -71.16562 25801 ft 358 kts 208°
2026-05-07 20:59 42.26189 -71.17675 25810 ft 358 kts 209°
2026-05-07 21:00 42.23841 -71.18788 25763 ft 357 kts 209°
2026-05-07 21:00 42.21499 -71.19899 25779 ft 356 kts 209°
2026-05-07 21:00 42.19167 -71.21010 25790 ft 355 kts 209°
2026-05-07 21:00 42.16865 -71.22099 25806 ft 354 kts 209°
2026-05-07 21:01 42.14538 -71.23198 25806 ft 354 kts 209°
2026-05-07 21:01 42.12213 -71.24298 25808 ft 353 kts 209°
2026-05-07 21:01 42.09887 -71.25396 25812 ft 353 kts 209°
2026-05-07 21:01 42.07566 -71.26489 25783 ft 352 kts 209°
2026-05-07 21:02 42.05255 -71.27581 25790 ft 351 kts 209°
2026-05-07 21:02 42.02948 -71.28672 25797 ft 352 kts 209°
2026-05-07 21:02 42.00664 -71.29748 25804 ft 352 kts 209°
2026-05-07 21:02 41.98349 -71.30833 25807 ft 351 kts 209°
2026-05-07 21:03 41.96042 -71.31914 25810 ft 351 kts 209°
2026-05-07 21:03 41.93737 -71.32999 25818 ft 351 kts 209°
2026-05-07 21:03 41.91429 -71.34084 25814 ft 350 kts 209°
2026-05-07 21:03 41.89147 -71.35153 25811 ft 350 kts 209°
2026-05-07 21:04 41.86817 -71.36241 25790 ft 349 kts 209°
2026-05-07 21:04 41.84522 -71.37311 25801 ft 348 kts 209°
2026-05-07 21:04 41.82261 -71.38368 25801 ft 347 kts 209°
2026-05-07 21:04 41.79980 -71.39441 25804 ft 347 kts 209°
2026-05-07 21:05 41.77700 -71.40503 25808 ft 346 kts 209°
2026-05-07 21:05 41.75416 -71.41563 25809 ft 347 kts 209°
2026-05-07 21:05 41.73184 -71.42727 25810 ft 340 kts 215°
2026-05-07 21:05 41.71194 -71.44355 25806 ft 331 kts 223°
2026-05-07 21:06 41.69423 -71.46318 25775 ft 329 kts 225°
2026-05-07 21:06 41.67692 -71.48268 25789 ft 328 kts 225°
2026-05-07 21:06 41.65941 -71.50229 25793 ft 328 kts 225°
2026-05-07 21:06 41.64187 -71.52191 25777 ft 328 kts 225°
2026-05-07 21:07 41.62433 -71.54152 25781 ft 328 kts 225°
2026-05-07 21:07 41.60680 -71.56108 25816 ft 329 kts 225°
2026-05-07 21:07 41.58913 -71.58074 25814 ft 330 kts 225°
2026-05-07 21:07 41.57151 -71.60035 25801 ft 330 kts 225°
2026-05-07 21:08 41.55381 -71.62005 25795 ft 331 kts 225°
2026-05-07 21:08 41.53610 -71.63977 25796 ft 332 kts 225°
2026-05-07 21:08 41.51854 -71.65928 25757 ft 331 kts 225°
2026-05-07 21:08 41.50081 -71.67895 25777 ft 332 kts 225°
2026-05-07 21:09 41.48302 -71.69865 25800 ft 331 kts 225°
2026-05-07 21:09 41.46531 -71.71822 25671 ft 330 kts 225°
2026-05-07 21:09 41.44769 -71.73766 25425 ft 327 kts 225°
2026-05-07 21:09 41.43017 -71.75697 25188 ft 326 kts 225°
2026-05-07 21:10 41.41271 -71.77624 24951 ft 325 kts 225°
2026-05-07 21:10 41.39552 -71.79524 24712 ft 324 kts 225°
2026-05-07 21:10 41.37814 -71.81445 24474 ft 323 kts 225°
2026-05-07 21:10 41.36079 -71.83365 24257 ft 323 kts 225°
2026-05-07 21:11 41.34354 -71.85272 24022 ft 322 kts 225°
2026-05-07 21:11 41.32630 -71.87169 23823 ft 321 kts 225°
2026-05-07 21:11 41.29201 -71.90936 23822 ft 321 kts 225°
2026-05-07 21:12 41.27470 -71.92844 23681 ft 326 kts 225°
2026-05-07 21:12 41.25726 -71.94769 23184 ft 326 kts 225°
2026-05-07 21:12 41.23982 -71.96691 22762 ft 325 kts 225°
2026-05-07 21:12 41.22237 -71.98610 22373 ft 326 kts 224°
2026-05-07 21:13 41.20486 -72.00527 21979 ft 326 kts 224°
2026-05-07 21:13 41.18739 -72.02440 21561 ft 325 kts 224°
2026-05-07 21:13 41.16993 -72.04348 21212 ft 323 kts 224°
2026-05-07 21:13 41.15259 -72.06239 20830 ft 322 kts 224°
2026-05-07 21:14 41.13530 -72.08128 20439 ft 322 kts 224°
2026-05-07 21:14 41.11832 -72.10016 20065 ft 321 kts 227°
2026-05-07 21:14 41.10366 -72.12226 19670 ft 318 kts 237°
2026-05-07 21:14 41.09288 -72.14786 19286 ft 318 kts 246°
2026-05-07 21:15 41.08566 -72.17563 18901 ft 319 kts 251°
2026-05-07 21:15 41.07880 -72.20362 18513 ft 319 kts 251°
2026-05-07 21:15 41.07198 -72.23128 18141 ft 319 kts 251°
2026-05-07 21:15 41.06504 -72.25924 17736 ft 319 kts 251°
2026-05-07 21:16 41.05804 -72.28729 17331 ft 320 kts 250°
2026-05-07 21:16 41.05109 -72.31517 16945 ft 319 kts 250°
2026-05-07 21:16 41.04412 -72.34312 16560 ft 317 kts 250°
2026-05-07 21:16 41.03721 -72.37089 16155 ft 316 kts 250°
2026-05-07 21:17 41.03033 -72.39850 15795 ft 315 kts 250°
2026-05-07 21:17 41.02346 -72.42600 15417 ft 313 kts 250°
2026-05-07 21:17 41.01668 -72.45308 15170 ft 313 kts 250°
2026-05-07 21:17 41.00986 -72.48039 14821 ft 312 kts 250°
2026-05-07 21:18 41.00305 -72.50766 14459 ft 311 kts 250°
2026-05-07 21:18 40.99627 -72.53482 14083 ft 310 kts 250°
2026-05-07 21:18 40.98950 -72.56185 13707 ft 309 kts 250°
2026-05-07 21:18 40.98272 -72.58880 13309 ft 308 kts 250°
2026-05-07 21:19 40.97596 -72.61568 12949 ft 307 kts 251°
2026-05-07 21:19 40.97152 -72.63331 12713 ft 302 kts 251°
2026-05-07 21:19 40.96502 -72.65904 12577 ft 286 kts 251°
2026-05-07 21:19 40.95887 -72.68338 12445 ft 272 kts 251°
2026-05-07 21:20 40.95296 -72.70667 12323 ft 261 kts 251°
2026-05-07 21:20 40.94730 -72.72903 12114 ft 253 kts 252°
2026-05-07 21:20 40.94175 -72.75095 11902 ft 246 kts 252°
2026-05-07 21:20 40.93643 -72.77198 11996 ft 246 kts 252°
2026-05-07 21:21 40.92921 -72.79263 12004 ft 249 kts 239°
2026-05-07 21:21 40.91770 -72.81007 12006 ft 254 kts 225°
2026-05-07 21:21 40.90339 -72.82409 12006 ft 256 kts 222°
2026-05-07 21:21 40.88911 -72.83774 11996 ft 256 kts 221°
2026-05-07 21:22 40.87448 -72.85178 12002 ft 256 kts 221°
2026-05-07 21:22 40.86025 -72.86543 12006 ft 256 kts 221°
2026-05-07 21:22 40.84584 -72.87922 12008 ft 256 kts 221°
2026-05-07 21:22 40.83143 -72.89301 12012 ft 255 kts 221°
2026-05-07 21:23 40.81702 -72.90683 12008 ft 256 kts 221°
2026-05-07 21:23 40.80257 -72.92069 12007 ft 256 kts 221°
2026-05-07 21:23 40.78815 -72.93448 12008 ft 256 kts 221°
2026-05-07 21:23 40.77394 -72.94807 12016 ft 256 kts 221°
2026-05-07 21:24 40.75948 -72.96188 12017 ft 256 kts 222°
2026-05-07 21:24 40.74501 -72.97571 12015 ft 257 kts 222°
2026-05-07 21:24 40.73049 -72.98954 12015 ft 257 kts 222°
2026-05-07 21:24 40.71597 -73.00340 11989 ft 257 kts 222°
2026-05-07 21:25 40.70184 -73.01777 12006 ft 253 kts 229°
2026-05-07 21:25 40.69094 -73.03571 11847 ft 250 kts 242°
2026-05-07 21:25 40.68388 -73.05654 11464 ft 247 kts 249°
2026-05-07 21:25 40.67778 -73.07729 11134 ft 245 kts 250°
2026-05-07 21:26 40.67171 -73.09823 10775 ft 244 kts 250°
2026-05-07 21:26 40.66561 -73.11927 10316 ft 247 kts 251°
2026-05-07 21:26 40.65942 -73.14052 9902 ft 249 kts 251°
2026-05-07 21:26 40.65322 -73.16180 9519 ft 249 kts 251°
2026-05-07 21:27 40.64700 -73.18308 9109 ft 249 kts 251°
2026-05-07 21:27 40.64073 -73.20448 8671 ft 251 kts 251°
2026-05-07 21:27 40.63451 -73.22567 8181 ft 251 kts 252°
2026-05-07 21:27 40.62827 -73.24689 7674 ft 245 kts 252°
2026-05-07 21:28 40.62220 -73.26748 7263 ft 240 kts 252°
2026-05-07 21:28 40.61613 -73.28818 6853 ft 244 kts 253°
2026-05-07 21:28 40.60998 -73.30925 6435 ft 248 kts 252°
2026-05-07 21:28 40.60372 -73.33062 6016 ft 253 kts 252°
2026-05-07 21:29 40.59733 -73.35234 5589 ft 256 kts 252°
2026-05-07 21:29 40.59089 -73.37417 5167 ft 259 kts 252°
2026-05-07 21:29 40.58432 -73.39644 4732 ft 262 kts 252°
2026-05-07 21:29 40.57767 -73.41889 4297 ft 264 kts 251°
2026-05-07 21:30 40.57100 -73.44139 3888 ft 259 kts 251°
2026-05-07 21:30 40.56472 -73.46237 3832 ft 235 kts 251°
2026-05-07 21:30 40.55882 -73.48214 3765 ft 230 kts 252°
2026-05-07 21:30 40.55307 -73.50167 3680 ft 229 kts 252°
2026-05-07 21:31 40.54772 -73.52132 3586 ft 227 kts 261°
2026-05-07 21:31 40.54730 -73.54133 3483 ft 213 kts 283°
2026-05-07 21:31 40.55253 -73.55913 3387 ft 208 kts 302°
2026-05-07 21:31 40.56001 -73.57547 3243 ft 209 kts 302°
2026-05-07 21:32 40.56745 -73.59171 3008 ft 206 kts 302°
2026-05-07 21:32 40.57479 -73.60779 2730 ft 204 kts 301°
2026-05-07 21:32 40.58204 -73.62369 2459 ft 201 kts 301°
2026-05-07 21:32 40.58905 -73.63907 2197 ft 191 kts 301°
2026-05-07 21:33 40.59561 -73.65345 1924 ft 181 kts 300°
2026-05-07 21:33 40.60223 -73.66799 1670 ft 172 kts 300°
2026-05-07 21:33 40.60812 -73.68094 1454 ft 157 kts 300°
2026-05-07 21:33 40.61350 -73.69275 1255 ft 144 kts 302°
2026-05-07 21:34 40.61841 -73.70356 1078 ft 133 kts 302°
2026-05-07 21:34 40.62313 -73.71394 891 ft 131 kts 302°
2026-05-07 21:34 40.62781 -73.72423 714 ft 132 kts 302°
2026-05-07 21:34 40.63254 -73.73464 551 ft 132 kts 302°
2026-05-07 21:35 40.63726 -73.74501 363 ft 131 kts 302°
2026-05-07 21:35 40.64191 -73.75543 172 ft 132 kts 303°
2026-05-07 21:35 40.64663 -73.76580 41 ft 132 kts 303°
2026-05-07 21:35 40.65079 -73.77479 18 ft 81 kts 299°
2026-05-07 21:36 40.65232 -73.77830 17 ft 21 kts 298°
2026-05-07 21:36 40.65172 -73.77961 18 ft 18 kts 213°
2026-05-07 21:36 40.65088 -73.78030 16 ft 13 kts 206°
2026-05-07 21:36 40.65013 -73.78016 16 ft 13 kts 127°
2026-05-07 21:37 40.64961 -73.77906 18 ft 16 kts 120°
2026-05-07 21:37 40.64901 -73.77772 16 ft 18 kts 120°
2026-05-07 21:37 40.64844 -73.77641 17 ft 12 kts 120°
2026-05-07 21:37 40.64795 -73.77558 17 ft 11 kts 150°
2026-05-07 21:38 40.64733 -73.77486 17 ft 11 kts 118°
2026-05-07 21:38 40.64711 -73.77469 17 ft 3 kts 182°
2026-05-07 21:38 40.64699 -73.77480 16 ft 3 kts 221°
2026-05-07 21:38 40.64683 -73.77514 16 ft 6 kts 238°
2026-05-07 21:39 40.64670 -73.77542 16 ft 2 kts 237°
2026-05-07 21:39 40.64668 -73.77545 16 ft 0 kts 237°